DW9572 Weather Reports


time (UTC)temp
F
wind
direction
speed
knots
gust
knots
rain 1hr
in
rain 24hr
in
rain mn
in
humidity
%
barometer
mb
20260905071518 63 346 6.1 10.4 0.00 0.00 0.00 49 1014.4
20260905070100 63 349 7.0 10.4 0.00 0.00 0.00 50 1014.4
20260905064602 63 350 6.1 9.6 0.00 0.00 0.00 51 1014.3
20260905063040 62 345 7.8 11.3 0.00 0.00 0.00 51 1014.1
20260905061603 62 348 7.0 9.6 0.00 0.00 0.00 51 1014.2
20260905060022 61 13 3.5 7.0 0.00 0.00 0.00 53 1014.1
20260905054521 61 277 0.0 3.5 0.00 0.00 0.00 56 1014.1
20260905053018 63 274 1.7 3.5 0.00 0.00 0.00 50 1014.0
20260905051507 65 340 5.2 11.3 0.00 0.00 0.00 48 1013.8
20260905050010 65 347 4.3 7.0 0.00 0.00 0.00 49 1013.8
20260905044514 64 314 2.6 7.0 0.00 0.00 0.00 50 1013.9
20260905043006 66 338 6.1 9.6 0.00 0.00 0.00 46 1013.8
20260905041510 65 336 0.0 1.7 0.00 0.00 0.00 44 1013.8
20260905040006 65 36 0.9 6.1 0.00 0.00 0.00 43 1013.8
20260905034508 64 274 3.5 6.1 0.00 0.00 0.00 55 1013.6
20260905033045 66 266 6.1 8.7 0.00 0.00 0.00 52 1013.5
20260905031545 67 290 3.5 9.6 0.00 0.00 0.00 40 1013.5
20260905030025 69 353 4.3 5.2 0.00 0.00 0.00 36 1013.2
20260905024525 68 357 3.5 4.3 0.00 0.00 0.00 36 1013.1
20260905023007 70 23 0.9 1.7 0.00 0.00 0.00 35 1013.1
20260905021507 71 69 0.9 2.6 0.00 0.00 0.00 35 1013.0
20260905020049 71 63 2.6 3.5 0.00 0.00 0.00 34 1013.0
20260905014548 72 62 0.9 3.5 0.00 0.00 0.00 33 1012.9
20260905013028 72 82 2.6 4.3 0.00 0.00 0.00 32 1012.8
20260905011528 72 117 2.6 3.5 0.00 0.00 0.00 33 1012.7
20260905010016 72 103 3.5 5.2 0.00 0.00 0.00 32 1012.7
20260905004509 72 148 1.7 5.2 0.00 0.00 0.00 34 1012.6
20260905003108 73 143 2.6 7.0 0.00 0.00 0.00 35 1012.6
20260905001550 73 111 7.8 9.6 0.00 0.00 0.00 34 1012.5
20260905000050 72 169 5.2 7.0 0.00 0.00 0.00 34 1012.6
20260904234540 72 91 3.5 8.7 0.00 0.00 0.00 35 1012.5
20260904233032 72 146 4.3 10.4 0.00 0.00 0.00 36 1012.6
20260904231513 72 138 6.1 10.4 0.00 0.00 0.00 37 1012.6
20260904230013 72 190 5.2 11.3 0.00 0.00 0.00 37 1012.7
20260904224556 72 138 2.6 7.8 0.00 0.00 0.00 39 1012.6
20260904223058 72 124 4.3 9.6 0.00 0.00 0.00 39 1012.6
20260904221535 73 135 8.7 13.0 0.00 0.00 0.00 38 1012.7
20260904220055 73 67 2.6 8.7 0.00 0.00 0.00 37 1012.7
20260904214517 71 51 4.3 10.4 0.00 0.00 0.00 39 1012.7
20260904213014 71 139 3.5 10.4 0.00 0.00 0.00 39 1012.9
20260904211610 71 126 0.0 8.7 0.00 0.00 0.00 40 1012.8
20260904210056 71 115 7.0 11.3 0.00 0.00 0.00 39 1012.9
20260904204530 70 195 2.6 7.8 0.00 0.00 0.00 39 1012.9
20260904203043 70 139 6.1 10.4 0.00 0.00 0.00 40 1013.0
20260904201511 70 114 2.6 7.8 0.00 0.00 0.00 39 1013.0
20260904200009 69 108 2.6 7.8 0.00 0.00 0.00 40 1013.0
20260904194506 69 194 3.5 7.8 0.00 0.00 0.00 44 1013.0
20260904193003 68 129 3.5 7.8 0.00 0.00 0.00 47 1013.1
20260904191600 68 128 3.5 8.7 0.00 0.00 0.00 47 1013.3
20260904190059 67 200 2.6 7.8 0.00 0.00 0.00 49 1013.5
20260904184558 66 34 5.2 9.6 0.00 0.00 0.00 47 1013.6
20260904183108 65 94 4.3 7.8 0.00 0.00 0.00 50 1013.6
20260904181533 65 70 7.0 12.2 0.00 0.00 0.00 52 1013.3
20260904180030 64 53 3.5 9.6 0.00 0.00 0.00 52 1013.4
20260904174510 63 49 7.8 9.6 0.00 0.00 0.00 54 1013.3
20260904173011 62 20 5.2 9.6 0.00 0.00 0.00 58 1013.3
20260904171552 61 63 4.3 7.8 0.00 0.00 0.00 60 1013.4
20260904170048 60 98 3.5 7.8 0.00 0.00 0.00 61 1013.5
20260904164522 59 23 3.5 9.6 0.00 0.00 0.00 64 1013.5
20260904163020 59 50 3.5 8.7 0.00 0.00 0.00 63 1013.3
20260904161507 59 16 3.5 7.0 0.00 0.00 0.00 63 1013.3
20260904160004 58 92 4.3 7.0 0.00 0.00 0.00 61 1013.1
20260904154602 58 45 2.6 7.8 0.00 0.00 0.00 63 1013.1
20260904153101 56 25 3.5 4.3 0.00 0.00 0.00 69 1013.1
20260904151556 53 97 3.5 3.5 0.00 0.00 0.00 70 1013.0
20260904150056 54 38 1.7 2.6 0.00 0.00 0.00 71 1012.9
20260904144557 54 4 1.7 4.3 0.00 0.00 0.00 71 1012.7
20260904143045 53 30 1.7 3.5 0.00 0.00 0.00 73 1012.5
20260904141531 52 1 0.0 0.9 0.00 0.00 0.00 74 1012.3
20260904140036 51 3 2.6 5.2 0.00 0.00 0.00 77 1012.0
20260904134557 50 349 5.2 6.1 0.00 0.00 0.00 77 1011.7
20260904133052 51 347 5.2 6.1 0.00 0.00 0.00 77 1011.7
20260904131531 51 352 3.5 3.5 0.00 0.00 0.00 77 1011.6
20260904130030 49 338 0.0 1.7 0.00 0.00 0.00 76 1011.4
20260904124510 49 311 0.9 1.7 0.00 0.00 0.00 76 1011.1
20260904123009 49 308 0.9 4.3 0.00 0.00 0.00 77 1011.1
20260904121549 49 293 3.5 4.3 0.00 0.00 0.00 77 1011.0
20260904120053 50 284 0.9 2.6 0.00 0.00 0.00 73 1010.8
20260904114536 50 263 0.9 2.6 0.00 0.00 0.00 73 1010.7
20260904113031 50 330 0.9 1.7 0.00 0.00 0.00 74 1010.6
20260904111505 51 327 0.0 0.9 0.00 0.00 0.00 72 1010.4
20260904110005 52 328 0.9 1.7 0.00 0.00 0.00 70 1010.3
20260904104547 53 324 1.7 2.6 0.00 0.00 0.00 68 1010.3
20260904103046 52 316 0.9 3.5 0.00 0.00 0.00 69 1010.2
20260904101529 52 305 1.7 2.6 0.00 0.00 0.00 72 1009.9
20260904100029 52 35 0.0 1.7 0.00 0.00 0.00 74 1009.7
20260904094508 53 79 4.3 6.1 0.00 0.00 0.00 61 1009.5
20260904093003 56 328 0.0 4.3 0.00 0.00 0.00 56 1009.2
20260904091546 57 320 1.7 4.3 0.00 0.00 0.00 57 1009.1
20260904090046 57 315 1.7 4.3 0.00 0.00 0.00 59 1009.1
20260904084527 57 287 2.6 4.3 0.00 0.00 0.00 58 1009.3
20260904083029 57 304 3.5 4.3 0.00 0.00 0.00 57 1009.2
20260904081508 58 271 4.3 5.2 0.00 0.00 0.00 59 1009.1
20260904080008 57 281 2.6 4.3 0.00 0.00 0.00 61 1009.2
20260904074558 58 242 2.6 4.3 0.00 0.00 0.00 57 1009.2
20260904073104 58 297 1.7 6.1 0.00 0.00 0.00 58 1009.1